DLH38 MROC-MRLB

Flight info

Callsign DLH38
Flight time 0h 21m
Altitude 13000
Route NANJO3L LIB
Aircraft A343/H-SDE2E3FGHIJ4J5M1RWXY/LB1D1

Departure

Time 2026-04-17 11:47
Airport Juan Santamaría International Airport (MROC)

Arrival

Time 2026-04-17 12:08
Airport Daniel Oduber Quirós International Airport (MRLB)
Time Latitude Longitude Altitude Speed Heading
2026-04-17 11:13 9.99852 -84.20086 3031 ft 0 kts 332°
2026-04-17 11:39 9.99842 -84.20081 3031 ft 4 kts 332°
2026-04-17 11:40 9.99818 -84.20068 3032 ft 4 kts 332°
2026-04-17 11:40 9.99793 -84.20055 3034 ft 2 kts 332°
2026-04-17 11:40 9.99791 -84.20053 3034 ft 0 kts 332°
2026-04-17 11:42 9.99792 -84.20055 3035 ft 1 kts 323°
2026-04-17 11:42 9.99790 -84.20086 3034 ft 10 kts 254°
2026-04-17 11:43 9.99744 -84.20198 3029 ft 24 kts 249°
2026-04-17 11:43 9.99683 -84.20360 3021 ft 25 kts 249°
2026-04-17 11:43 9.99620 -84.20531 3012 ft 27 kts 250°
2026-04-17 11:43 9.99547 -84.20725 3004 ft 31 kts 249°
2026-04-17 11:44 9.99467 -84.20942 2994 ft 36 kts 249°
2026-04-17 11:44 9.99383 -84.21166 2983 ft 17 kts 248°
2026-04-17 11:44 9.99347 -84.21259 2978 ft 18 kts 249°
2026-04-17 11:44 9.99298 -84.21391 2972 ft 22 kts 249°
2026-04-17 11:45 9.99240 -84.21544 2967 ft 27 kts 249°
2026-04-17 11:45 9.99167 -84.21744 2945 ft 32 kts 250°
2026-04-17 11:45 9.99096 -84.21958 2941 ft 32 kts 269°
2026-04-17 11:45 9.99083 -84.22146 2933 ft 13 kts 245°
2026-04-17 11:46 9.99006 -84.22200 2932 ft 15 kts 182°
2026-04-17 11:46 9.98937 -84.22127 2939 ft 20 kts 94°
2026-04-17 11:46 9.99001 -84.21922 2943 ft 52 kts 69°
2026-04-17 11:46 9.99218 -84.21346 2972 ft 121 kts 69°
2026-04-17 11:47 9.99591 -84.20399 3141 ft 164 kts 67°
2026-04-17 11:47 10.00326 -84.19488 3888 ft 175 kts 36°
2026-04-17 11:47 10.01568 -84.19170 4537 ft 201 kts
2026-04-17 11:47 10.02907 -84.19679 5060 ft 216 kts 325°
2026-04-17 11:48 10.04206 -84.20584 5385 ft 236 kts 330°
2026-04-17 11:48 10.05616 -84.21506 5686 ft 246 kts 329°
2026-04-17 11:48 10.06959 -84.22604 5896 ft 253 kts 314°
2026-04-17 11:48 10.07872 -84.24130 6529 ft 256 kts 290°
2026-04-17 11:49 10.08305 -84.25908 7269 ft 268 kts 280°
2026-04-17 11:49 10.08655 -84.27791 7860 ft 282 kts 283°
2026-04-17 11:49 10.09150 -84.29736 8703 ft 285 kts 282°
2026-04-17 11:49 10.09496 -84.31711 9697 ft 284 kts 276°
2026-04-17 11:50 10.09794 -84.33707 10435 ft 293 kts 279°
2026-04-17 11:50 10.10418 -84.35753 10773 ft 315 kts 292°
2026-04-17 11:50 10.11363 -84.37836 11020 ft 336 kts 294°
2026-04-17 11:50 10.12256 -84.40090 11366 ft 351 kts 288°
2026-04-17 11:51 10.13057 -84.42466 11931 ft 359 kts 288°
2026-04-17 11:51 10.13844 -84.44861 12512 ft 366 kts 287°
2026-04-17 11:51 10.14641 -84.47329 12862 ft 369 kts 287°
2026-04-17 11:51 10.15442 -84.49841 12920 ft 379 kts 287°
2026-04-17 11:52 10.16254 -84.52399 12911 ft 383 kts 288°
2026-04-17 11:52 10.17073 -84.54984 12915 ft 385 kts 288°
2026-04-17 11:52 10.17891 -84.57572 12927 ft 385 kts 288°
2026-04-17 11:52 10.18710 -84.60165 12928 ft 385 kts 288°
2026-04-17 11:53 10.19527 -84.62753 12914 ft 385 kts 288°
2026-04-17 11:53 10.20344 -84.65344 12923 ft 385 kts 288°
2026-04-17 11:53 10.21159 -84.67931 12893 ft 385 kts 288°
2026-04-17 11:53 10.21964 -84.70484 12907 ft 385 kts 288°
2026-04-17 11:54 10.22779 -84.73074 12893 ft 385 kts 288°
2026-04-17 11:54 10.23593 -84.75659 12906 ft 384 kts 288°
2026-04-17 11:54 10.24406 -84.78243 12905 ft 385 kts 288°
2026-04-17 11:54 10.25220 -84.80831 12910 ft 385 kts 288°
2026-04-17 11:55 10.26035 -84.83420 12896 ft 385 kts 288°
2026-04-17 11:55 10.26849 -84.86009 12895 ft 385 kts 288°
2026-04-17 11:55 10.27661 -84.88594 12891 ft 384 kts 288°
2026-04-17 11:55 10.28474 -84.91180 12901 ft 385 kts 288°
2026-04-17 11:56 10.29275 -84.93731 12904 ft 385 kts 288°
2026-04-17 11:56 10.30088 -84.96320 12891 ft 384 kts 288°
2026-04-17 11:56 10.30901 -84.98908 12874 ft 385 kts 288°
2026-04-17 11:56 10.31712 -85.01494 12874 ft 384 kts 288°
2026-04-17 11:57 10.32523 -85.04079 12889 ft 384 kts 288°
2026-04-17 11:57 10.33335 -85.06667 12774 ft 383 kts 287°
2026-04-17 11:57 10.34130 -85.09201 12445 ft 374 kts 287°
2026-04-17 11:57 10.34909 -85.11687 11891 ft 374 kts 287°
2026-04-17 11:58 10.35697 -85.14198 11377 ft 372 kts 287°
2026-04-17 11:58 10.36358 -85.16714 10900 ft 367 kts 278°
2026-04-17 11:58 10.36745 -85.19267 10439 ft 364 kts 277°
2026-04-17 11:58 10.37146 -85.21781 10086 ft 357 kts 277°
2026-04-17 11:59 10.37548 -85.24233 9716 ft 344 kts 278°
2026-04-17 11:59 10.37933 -85.26540 9320 ft 318 kts 278°
2026-04-17 11:59 10.38287 -85.28675 8944 ft 297 kts 278°
2026-04-17 11:59 10.38625 -85.30723 8567 ft 292 kts 278°
2026-04-17 12:00 10.38974 -85.32673 8179 ft 277 kts 279°
2026-04-17 12:00 10.39332 -85.34552 7822 ft 265 kts 280°
2026-04-17 12:00 10.39696 -85.36430 7438 ft 281 kts 281°
2026-04-17 12:00 10.40081 -85.38422 7046 ft 291 kts 281°
2026-04-17 12:01 10.40468 -85.40442 6672 ft 292 kts 281°
2026-04-17 12:01 10.40853 -85.42469 6287 ft 292 kts 281°
2026-04-17 12:01 10.41233 -85.44488 5889 ft 290 kts 282°
2026-04-17 12:01 10.41606 -85.46474 5385 ft 289 kts 282°
2026-04-17 12:02 10.41992 -85.48461 4683 ft 285 kts 285°
2026-04-17 12:02 10.42285 -85.50446 3952 ft 286 kts 273°
2026-04-17 12:02 10.42293 -85.52459 3232 ft 284 kts 275°
2026-04-17 12:02 10.42794 -85.54323 2512 ft 264 kts 303°
2026-04-17 12:03 10.43909 -85.55691 1958 ft 241 kts 322°
2026-04-17 12:03 10.45147 -85.56796 1742 ft 233 kts 324°
2026-04-17 12:03 10.46385 -85.57737 1707 ft 217 kts 332°
2026-04-17 12:03 10.47643 -85.58543 1697 ft 205 kts 334°
2026-04-17 12:04 10.48750 -85.59248 1734 ft 178 kts 334°
2026-04-17 12:04 10.49773 -85.59872 1724 ft 167 kts 339°
2026-04-17 12:04 10.50812 -85.60388 1699 ft 166 kts 341°
2026-04-17 12:04 10.51869 -85.60868 1698 ft 167 kts 343°
2026-04-17 12:05 10.52937 -85.61338 1698 ft 167 kts 343°
2026-04-17 12:05 10.53979 -85.61802 1688 ft 156 kts 343°
2026-04-17 12:05 10.54938 -85.62033 1669 ft 131 kts
2026-04-17 12:05 10.55828 -85.61973 1689 ft 128 kts 15°
2026-04-17 12:06 10.56549 -85.61556 1660 ft 119 kts 53°
2026-04-17 12:06 10.57022 -85.60874 1430 ft 120 kts 64°
2026-04-17 12:06 10.57316 -85.60082 1175 ft 117 kts 73°
2026-04-17 12:06 10.57609 -85.59301 1054 ft 122 kts 70°
2026-04-17 12:07 10.57896 -85.58485 895 ft 125 kts 69°
2026-04-17 12:07 10.58203 -85.57626 768 ft 132 kts 69°
2026-04-17 12:07 10.58507 -85.56752 575 ft 131 kts 70°
2026-04-17 12:07 10.58835 -85.55875 369 ft 133 kts 70°
2026-04-17 12:08 10.59152 -85.54996 275 ft 127 kts 70°
2026-04-17 12:08 10.59417 -85.54260 271 ft 97 kts 71°
2026-04-17 12:08 10.59603 -85.53705 276 ft 64 kts 69°
2026-04-17 12:08 10.59713 -85.53537 277 ft 20 kts 34°
2026-04-17 12:09 10.59832 -85.53478 277 ft 17 kts 26°
2026-04-17 12:09 10.59891 -85.53384 278 ft 16 kts 73°
2026-04-17 12:09 10.59920 -85.53349 279 ft 6 kts
2026-04-17 12:09 10.59993 -85.53384 279 ft 14 kts 338°
2026-04-17 12:10 10.60040 -85.53402 279 ft 3 kts 340°
2026-04-17 12:10 10.60048 -85.53405 279 ft 0 kts 341°